Time,TemperatureF,DewpointF,PressureIn,WindDirection,WindDirectionDegrees,WindSpeedMPH,WindSpeedGustMPH,Humidity,HourlyPrecipIn,Conditions,Clouds,dailyrainin,SolarRadiationWatts/m^2,SoftwareType,DateUTC
2013-02-15 00:01:00,21.0,8.2,30.24,NNE,22,3.6,4.6,57,0.00,CLR,SCT,0.00,0.0,WeatherDisplay:10.37,2013-02-15 06:01:00,
2013-02-15 00:06:00,20.8,8.0,30.24,NNW,338,5.4,6.9,57,0.00,CLR,SCT,0.00,0.0,WeatherDisplay:10.37,2013-02-15 06:06:00,
2013-02-15 00:11:00,20.7,7.8,30.24,West,270,3.6,6.9,57,0.00,CLR,SCT,0.00,0.0,WeatherDisplay:10.37,2013-02-15 06:11:00,
2013-02-15 00:16:00,20.5,7.6,30.24,SSW,202,4.0,6.9,57,0.00,CLR,SCT,0.00,0.0,WeatherDisplay:10.37,2013-02-15 06:16:00,
2013-02-15 00:21:00,20.3,7.1,30.24,NNE,22,5.4,5.8,56,0.00,CLR,SCT,0.00,0.0,WeatherDisplay:10.37,2013-02-15 06:21:00,
2013-02-15 00:27:00,20.3,6.7,30.24,North,0,4.0,6.9,55,0.00,CLR,SCT,0.00,0.0,WeatherDisplay:10.37,2013-02-15 06:27:00,
2013-02-15 00:32:00,20.3,6.7,30.24,NNE,22,3.3,5.8,55,0.00,CLR,SCT,0.00,0.0,WeatherDisplay:10.37,2013-02-15 06:32:00,
2013-02-15 00:37:00,20.1,6.9,30.24,WNW,292,2.9,4.6,56,0.00,CLR,SCT,0.00,0.0,WeatherDisplay:10.37,2013-02-15 06:37:00,
2013-02-15 00:42:00,19.8,6.2,30.24,South,180,3.3,3.5,55,0.00,CLR,SCT,0.00,0.0,WeatherDisplay:10.37,2013-02-15 06:42:00,
2013-02-15 00:47:00,19.8,5.8,30.21,South,180,2.2,5.8,54,0.00,CLR,SCT,0.00,0.0,WeatherDisplay:10.37,2013-02-15 06:47:00,
2013-02-15 00:52:00,19.6,5.2,30.21,NNE,22,3.3,5.8,53,0.00,CLR,SCT,0.00,0.0,WeatherDisplay:10.37,2013-02-15 06:52:00,
2013-02-15 00:57:00,19.4,5.0,30.21,NNE,22,2.4,5.8,53,0.00,CLR,SCT,0.00,0.0,WeatherDisplay:10.37,2013-02-15 06:57:00,
2013-02-15 01:02:00,19.2,4.9,30.24,NNE,22,3.8,5.8,53,0.00,CLR,SCT,0.00,0.0,WeatherDisplay:10.37,2013-02-15 07:02:00,
2013-02-15 01:07:00,19.2,4.9,30.24,NNE,22,4.0,6.9,53,0.00,CLR,SCT,0.00,0.0,WeatherDisplay:10.37,2013-02-15 07:07:00,
2013-02-15 01:12:00,19.0,4.3,30.24,SW,225,2.2,4.6,52,0.00,CLR,SCT,0.00,0.0,WeatherDisplay:10.37,2013-02-15 07:12:00,
2013-02-15 01:17:00,19.0,4.3,30.24,North,0,1.4,3.5,52,0.00,CLR,SCT,0.00,0.0,WeatherDisplay:10.37,2013-02-15 07:17:00,
2013-02-15 01:22:00,18.7,4.4,30.24,North,0,2.4,4.6,53,0.00,CLR,SCT,0.00,0.0,WeatherDisplay:10.37,2013-02-15 07:22:00,
2013-02-15 01:27:00,18.5,4.6,30.24,NNW,338,2.0,3.5,54,0.00,CLR,SCT,0.00,0.0,WeatherDisplay:10.37,2013-02-15 07:27:00,
2013-02-15 01:32:00,18.3,4.4,30.27,WNW,292,3.1,4.6,54,0.00,CLR,SCT,0.00,0.0,WeatherDisplay:10.37,2013-02-15 07:32:00,
2013-02-15 01:37:00,18.3,4.8,30.27,WNW,292,3.6,4.6,55,0.00,CLR,SCT,0.00,0.0,WeatherDisplay:10.37,2013-02-15 07:37:00,
2013-02-15 01:42:00,18.1,5.1,30.27,NNW,338,3.3,5.8,56,0.00,CLR,SCT,0.00,0.0,WeatherDisplay:10.37,2013-02-15 07:42:00,
2013-02-15 01:47:00,18.1,5.1,30.27,WSW,248,4.0,5.8,56,0.00,CLR,SCT,0.00,0.0,WeatherDisplay:10.37,2013-02-15 07:47:00,
2013-02-15 01:52:00,18.0,4.9,30.27,West,270,2.9,5.8,56,0.00,CLR,SCT,0.00,0.0,WeatherDisplay:10.37,2013-02-15 07:52:00,
2013-02-15 01:57:00,17.8,4.7,30.27,West,270,2.9,4.6,56,0.00,CLR,SCT,0.00,0.0,WeatherDisplay:10.37,2013-02-15 07:57:00,
2013-02-15 02:02:00,17.8,5.1,30.30,NW,315,3.6,5.8,57,0.00,CLR,SCT,0.00,0.0,WeatherDisplay:10.37,2013-02-15 08:02:00,
2013-02-15 02:07:00,17.6,4.9,30.30,SW,225,2.0,3.5,57,0.00,CLR,SCT,0.00,0.0,WeatherDisplay:10.37,2013-02-15 08:07:00,
2013-02-15 02:12:00,17.4,4.8,30.30,NNW,338,3.3,5.8,57,0.00,CLR,SCT,0.00,0.0,WeatherDisplay:10.37,2013-02-15 08:12:00,
2013-02-15 02:17:00,17.4,5.1,30.30,NNW,338,3.3,5.9,58,0.00,CLR,SCT,0.00,0.0,WeatherDisplay:10.37,2013-02-15 08:17:00,
2013-02-15 02:22:00,17.4,5.5,30.30,WSW,248,2.4,4.6,59,0.00,CLR,SCT,0.00,0.0,WeatherDisplay:10.37,2013-02-15 08:22:00,
2013-02-15 02:27:00,17.4,5.9,30.30,NNW,338,4.3,5.8,60,0.00,CLR,SCT,0.00,0.0,WeatherDisplay:10.37,2013-02-15 08:27:00,
2013-02-15 02:32:00,17.2,5.7,30.30,NNW,338,2.9,4.6,60,0.00,CLR,SCT,0.00,0.0,WeatherDisplay:10.37,2013-02-15 08:32:00,
2013-02-15 02:37:00,17.1,5.9,30.30,NNE,22,3.3,3.5,61,0.00,CLR,SCT,0.00,0.0,WeatherDisplay:10.37,2013-02-15 08:37:00,
2013-02-15 02:42:00,17.1,5.9,30.30,WNW,292,2.9,3.6,61,0.00,CLR,SCT,0.00,0.0,WeatherDisplay:10.37,2013-02-15 08:42:00,
2013-02-15 02:47:00,16.9,6.4,30.27,North,0,2.6,5.8,63,0.00,CLR,SCT,0.00,0.0,WeatherDisplay:10.37,2013-02-15 08:47:00,
2013-02-15 02:52:00,16.9,7.1,30.27,NNW,338,2.6,5.8,65,0.00,CLR,SCT,0.00,0.0,WeatherDisplay:10.37,2013-02-15 08:52:00,
2013-02-15 02:57:00,16.7,7.3,30.27,NNW,338,3.8,6.2,66,0.00,CLR,SCT,0.00,0.0,WeatherDisplay:10.37,2013-02-15 08:57:00,
2013-02-15 03:02:00,16.7,7.6,30.30,NNW,338,3.8,5.8,67,0.00,CLR,SCT,0.00,0.0,WeatherDisplay:10.37,2013-02-15 09:02:00,
2013-02-15 03:07:00,16.7,7.6,30.30,North,0,2.4,4.6,67,0.00,CLR,SCT,0.00,0.0,WeatherDisplay:10.37,2013-02-15 09:07:00,
2013-02-15 03:12:00,16.7,7.6,30.30,WNW,292,3.6,3.6,67,0.00,CLR,SCT,0.00,0.0,WeatherDisplay:10.37,2013-02-15 09:12:00,
2013-02-15 03:17:00,16.5,7.5,30.30,WNW,292,2.2,3.5,67,0.00,CLR,SCT,0.00,0.0,WeatherDisplay:10.37,2013-02-15 09:17:00,
2013-02-15 03:22:00,16.5,7.8,30.30,NW,315,2.4,3.5,68,0.00,CLR,SCT,0.00,0.0,WeatherDisplay:10.37,2013-02-15 09:22:00,
2013-02-15 03:27:00,16.5,8.1,30.30,North,0,2.2,4.6,69,0.00,CLR,SCT,0.00,0.0,WeatherDisplay:10.37,2013-02-15 09:27:00,
2013-02-15 03:32:00,16.3,8.3,30.30,NNE,22,2.6,5.8,70,0.00,CLR,SCT,0.00,0.0,WeatherDisplay:10.37,2013-02-15 09:32:00,
2013-02-15 03:37:00,16.3,8.3,30.30,WNW,292,2.4,4.6,70,0.00,CLR,SCT,0.00,0.0,WeatherDisplay:10.37,2013-02-15 09:37:00,
2013-02-15 03:42:00,16.2,8.4,30.30,WNW,292,2.4,3.5,71,0.00,CLR,SCT,0.00,0.0,WeatherDisplay:10.37,2013-02-15 09:42:00,
2013-02-15 03:47:00,16.2,8.4,30.27,West,270,2.6,4.6,71,0.00,CLR,SCT,0.00,0.0,WeatherDisplay:10.37,2013-02-15 09:47:00,
2013-02-15 03:52:00,16.0,8.2,30.27,WNW,292,2.6,3.5,71,0.00,CLR,SCT,0.00,0.0,WeatherDisplay:10.37,2013-02-15 09:52:00,
2013-02-15 03:57:00,15.8,8.1,30.27,WNW,292,2.4,2.4,71,0.00,CLR,SCT,0.00,0.0,WeatherDisplay:10.37,2013-02-15 09:57:00,
2013-02-15 04:02:00,15.6,8.2,30.30,WNW,292,2.0,2.4,72,0.00,CLR,SCT,0.00,0.0,WeatherDisplay:10.37,2013-02-15 10:02:00,
2013-02-15 04:07:00,15.3,7.8,30.30,WSW,248,2.4,2.9,72,0.00,CLR,SCT,0.00,0.0,WeatherDisplay:10.37,2013-02-15 10:07:00,
2013-02-15 04:12:00,15.3,8.2,30.30,WNW,292,2.4,2.4,73,0.00,CLR,SCT,0.00,0.0,WeatherDisplay:10.37,2013-02-15 10:12:00,
2013-02-15 04:17:00,14.9,8.1,30.30,West,270,2.2,3.5,74,0.00,CLR,SCT,0.00,0.0,WeatherDisplay:10.37,2013-02-15 10:17:00,
2013-02-15 04:22:00,14.5,8.1,30.30,West,270,2.4,3.5,75,0.00,CLR,SCT,0.00,0.0,WeatherDisplay:10.37,2013-02-15 10:22:00,
2013-02-15 04:27:00,14.5,8.1,30.30,WSW,248,2.9,4.6,75,0.00,CLR,SCT,0.00,0.0,WeatherDisplay:10.37,2013-02-15 10:27:00,
2013-02-15 04:32:00,14.4,8.2,30.30,WNW,292,2.0,4.6,76,0.00,CLR,SCT,0.00,0.0,WeatherDisplay:10.37,2013-02-15 10:32:00,
2013-02-15 04:37:00,14.2,8.0,30.30,WNW,292,2.0,2.3,76,0.00,CLR,SCT,0.00,0.0,WeatherDisplay:10.37,2013-02-15 10:37:00,
2013-02-15 04:42:00,14.2,8.0,30.30,West,270,2.6,3.5,76,0.00,CLR,SCT,0.00,0.0,WeatherDisplay:10.37,2013-02-15 10:42:00,
2013-02-15 04:47:00,14.2,8.3,30.30,WNW,292,2.2,3.5,77,0.00,CLR,SCT,0.00,0.0,WeatherDisplay:10.37,2013-02-15 10:47:00,
2013-02-15 04:52:00,14.0,8.1,30.30,West,270,2.0,3.5,77,0.00,CLR,SCT,0.00,0.0,WeatherDisplay:10.37,2013-02-15 10:52:00,
2013-02-15 04:57:00,13.8,7.9,30.30,WNW,292,2.2,2.4,77,0.00,CLR,SCT,0.00,0.0,WeatherDisplay:10.37,2013-02-15 10:57:00,
2013-02-15 05:02:00,13.8,8.2,30.30,West,270,2.2,3.5,78,0.00,CLR,SCT,0.00,0.0,WeatherDisplay:10.37,2013-02-15 11:02:00,
2013-02-15 05:07:00,13.6,8.1,30.30,WNW,292,2.2,3.5,78,0.00,CLR,SCT,0.00,0.0,WeatherDisplay:10.37,2013-02-15 11:07:00,
2013-02-15 05:12:00,13.6,8.1,30.30,West,270,3.1,4.6,78,0.00,CLR,SCT,0.00,0.0,WeatherDisplay:10.37,2013-02-15 11:12:00,
2013-02-15 05:17:00,13.5,7.9,30.27,WNW,292,2.9,4.0,78,0.00,CLR,SCT,0.00,0.0,WeatherDisplay:10.37,2013-02-15 11:17:00,
2013-02-15 05:22:00,13.5,7.9,30.27,WNW,292,2.2,3.5,78,0.00,CLR,SCT,0.00,0.0,WeatherDisplay:10.37,2013-02-15 11:22:00,
2013-02-15 05:27:00,13.5,7.9,30.27,WNW,292,1.6,3.5,78,0.00,CLR,SCT,0.00,0.0,WeatherDisplay:10.37,2013-02-15 11:27:00,
2013-02-15 05:32:00,13.5,7.9,30.30,WSW,248,1.4,4.6,78,0.00,CLR,SCT,0.00,0.0,WeatherDisplay:10.37,2013-02-15 11:32:00,
2013-02-15 05:37:00,13.5,7.9,30.30,West,270,1.6,3.5,78,0.00,CLR,SCT,0.00,0.0,WeatherDisplay:10.37,2013-02-15 11:37:00,
2013-02-15 05:42:00,13.5,7.9,30.30,WNW,292,2.2,3.5,78,0.00,CLR,SCT,0.00,0.0,WeatherDisplay:10.37,2013-02-15 11:42:00,
2013-02-15 05:47:00,13.5,7.9,30.33,WNW,292,1.4,3.5,78,0.00,CLR,SCT,0.00,0.0,WeatherDisplay:10.37,2013-02-15 11:47:00,
2013-02-15 05:52:00,13.5,7.9,30.33,West,270,2.2,3.5,78,0.00,CLR,SCT,0.00,0.0,WeatherDisplay:10.37,2013-02-15 11:52:00,
2013-02-15 05:57:00,13.5,7.9,30.33,WNW,292,2.2,3.5,78,0.00,CLR,SCT,0.00,0.0,WeatherDisplay:10.37,2013-02-15 11:57:00,
2013-02-15 06:02:00,13.5,7.9,30.30,WSW,248,3.1,4.9,78,0.00,CLR,SCT,0.00,0.0,WeatherDisplay:10.37,2013-02-15 12:02:00,
2013-02-15 06:07:00,13.5,7.9,30.30,West,270,2.9,3.5,78,0.00,CLR,SCT,0.00,0.0,WeatherDisplay:10.37,2013-02-15 12:07:00,
2013-02-15 06:12:00,13.5,7.9,30.30,WNW,292,2.4,4.6,78,0.00,CLR,SCT,0.00,0.0,WeatherDisplay:10.37,2013-02-15 12:12:00,
2013-02-15 06:17:00,13.6,8.1,30.30,West,270,2.9,4.6,78,0.00,CLR,SCT,0.00,0.0,WeatherDisplay:10.37,2013-02-15 12:17:00,
2013-02-15 06:22:00,14.0,7.2,30.30,WNW,292,2.2,4.6,74,0.00,CLR,SCT,0.00,0.0,WeatherDisplay:10.37,2013-02-15 12:22:00,
2013-02-15 06:27:00,14.2,7.4,30.30,NW,315,2.6,3.8,74,0.00,CLR,SCT,0.00,0.0,WeatherDisplay:10.37,2013-02-15 12:27:00,
2013-02-15 06:32:00,14.4,7.6,30.30,NNE,22,3.1,4.6,74,0.00,CLR,SCT,0.00,0.0,WeatherDisplay:10.37,2013-02-15 12:32:00,
2013-02-15 06:37:00,14.7,7.6,30.30,NNW,338,3.1,4.0,73,0.00,CLR,SCT,0.00,0.0,WeatherDisplay:10.37,2013-02-15 12:37:00,
2013-02-15 06:42:00,15.1,8.0,30.30,NNE,22,2.9,4.6,73,0.00,CLR,SCT,0.00,0.0,WeatherDisplay:10.37,2013-02-15 12:42:00,
2013-02-15 06:47:00,15.3,7.8,30.30,WNW,292,2.2,4.6,72,0.00,CLR,SCT,0.00,0.0,WeatherDisplay:10.37,2013-02-15 12:47:00,
2013-02-15 06:52:00,15.6,8.2,30.30,WNW,292,2.2,3.5,72,0.00,CLR,SCT,0.00,0.0,WeatherDisplay:10.37,2013-02-15 12:52:00,
2013-02-15 06:57:00,15.8,8.4,30.30,West,270,2.9,5.8,72,0.00,CLR,SCT,0.00,0.0,WeatherDisplay:10.37,2013-02-15 12:57:00,
2013-02-15 07:02:00,16.0,8.2,30.27,West,270,3.1,4.7,71,0.00,OVC,SCT,0.00,0.0,WeatherDisplay:10.37,2013-02-15 13:02:00,
2013-02-15 07:07:00,16.2,8.1,30.27,West,270,2.9,3.5,70,0.00,OVC,SCT,0.00,0.0,WeatherDisplay:10.37,2013-02-15 13:07:00,
2013-02-15 07:12:00,16.2,8.1,30.27,WNW,292,1.6,3.5,70,0.00,OVC,SCT,0.00,0.0,WeatherDisplay:10.37,2013-02-15 13:12:00,
2013-02-15 07:17:00,16.2,7.8,30.30,West,270,2.0,2.3,69,0.00,OVC,SCT,0.00,0.0,WeatherDisplay:10.37,2013-02-15 13:17:00,
2013-02-15 07:22:00,16.3,7.9,30.30,WNW,292,1.4,3.8,69,0.00,OVC,SCT,0.00,0.0,WeatherDisplay:10.37,2013-02-15 13:22:00,
2013-02-15 07:27:00,16.3,7.9,30.30,WNW,292,2.2,3.5,69,0.00,OVC,SCT,0.00,0.0,WeatherDisplay:10.37,2013-02-15 13:27:00,
2013-02-15 07:33:00,16.5,8.1,30.30,WNW,292,3.1,4.6,69,0.00,OVC,SCT,0.00,0.0,WeatherDisplay:10.37,2013-02-15 13:33:00,
2013-02-15 07:38:00,16.5,7.8,30.30,WSW,248,1.6,3.5,68,0.00,OVC,SCT,0.00,0.0,WeatherDisplay:10.37,2013-02-15 13:38:00,
2013-02-15 07:43:00,16.5,7.8,30.30,NNE,22,2.0,3.5,68,0.00,OVC,SCT,0.00,0.0,WeatherDisplay:10.37,2013-02-15 13:43:00,
2013-02-15 07:48:00,16.3,7.6,30.30,West,270,2.4,3.5,68,0.00,OVC,SCT,0.00,0.0,WeatherDisplay:10.37,2013-02-15 13:48:00,
2013-02-15 07:53:00,16.3,7.6,30.30,WNW,292,2.9,3.5,68,0.00,OVC,SCT,0.00,0.0,WeatherDisplay:10.37,2013-02-15 13:53:00,
2013-02-15 07:58:00,16.5,8.1,30.30,West,270,2.0,2.6,69,0.00,OVC,SCT,0.00,0.0,WeatherDisplay:10.37,2013-02-15 13:58:00,
2013-02-15 08:03:00,16.7,8.6,30.30,WNW,292,2.0,2.3,70,0.00,OVC,SCT,0.00,0.0,WeatherDisplay:10.37,2013-02-15 14:03:00,
2013-02-15 08:08:00,17.1,9.3,30.30,WNW,292,2.6,3.6,71,0.00,OVC,SCT,0.00,0.0,WeatherDisplay:10.37,2013-02-15 14:08:00,
2013-02-15 08:13:00,17.6,9.5,30.30,WSW,248,3.1,3.5,70,0.00,OVC,SCT,0.00,0.0,WeatherDisplay:10.37,2013-02-15 14:13:00,
2013-02-15 08:18:00,18.1,10.0,30.30,WSW,248,2.6,2.9,70,0.00,OVC,SCT,0.00,0.0,WeatherDisplay:10.37,2013-02-15 14:18:00,
2013-02-15 08:23:00,18.7,10.2,30.30,NW,315,3.1,5.8,69,0.00,OVC,SCT,0.00,0.0,WeatherDisplay:10.37,2013-02-15 14:23:00,
2013-02-15 08:29:00,19.2,10.4,30.30,WNW,292,3.1,3.8,68,0.00,OVC,SCT,0.00,0.0,WeatherDisplay:10.37,2013-02-15 14:29:00,
2013-02-15 08:34:00,19.8,10.2,30.33,West,270,2.6,3.5,66,0.00,OVC,SCT,0.00,0.0,WeatherDisplay:10.37,2013-02-15 14:34:00,
2013-02-15 08:39:00,20.3,10.4,30.33,WNW,292,2.4,3.8,65,0.00,OVC,SCT,0.00,0.0,WeatherDisplay:10.37,2013-02-15 14:39:00,
2013-02-15 08:44:00,20.8,11.3,30.33,WNW,292,2.0,3.5,66,0.00,OVC,SCT,0.00,0.0,WeatherDisplay:10.37,2013-02-15 14:44:00,
2013-02-15 08:49:00,21.2,10.9,30.33,WSW,248,3.1,4.6,64,0.00,OVC,SCT,0.00,0.0,WeatherDisplay:10.37,2013-02-15 14:49:00,
2013-02-15 08:54:00,21.2,10.6,30.33,WNW,292,3.8,5.4,63,0.00,OVC,SCT,0.00,0.0,WeatherDisplay:10.37,2013-02-15 14:54:00,
2013-02-15 08:59:00,21.6,10.5,30.33,WSW,248,4.3,8.1,62,0.00,OVC,SCT,0.00,0.0,WeatherDisplay:10.37,2013-02-15 14:59:00,
2013-02-15 09:04:00,21.7,10.7,30.33,NNW,338,3.1,3.8,62,0.00,OVC,SCT,0.00,0.0,WeatherDisplay:10.37,2013-02-15 15:04:00,
2013-02-15 09:09:00,22.1,10.7,30.33,NW,315,2.9,5.9,61,0.00,OVC,SCT,0.00,0.0,WeatherDisplay:10.37,2013-02-15 15:09:00,
2013-02-15 09:14:00,22.5,10.7,30.33,NNW,338,4.0,5.8,60,0.00,OVC,SCT,0.00,0.0,WeatherDisplay:10.37,2013-02-15 15:14:00,
2013-02-15 09:19:00,22.6,10.4,30.33,West,270,3.3,3.5,59,0.00,OVC,SCT,0.00,0.0,WeatherDisplay:10.37,2013-02-15 15:19:00,
2013-02-15 09:24:00,23.0,11.2,30.33,WNW,292,2.9,4.6,60,0.00,OVC,SCT,0.00,0.0,WeatherDisplay:10.37,2013-02-15 15:24:00,
2013-02-15 09:30:00,23.4,10.7,30.33,North,0,3.8,4.7,58,0.00,OVC,SCT,0.00,0.0,WeatherDisplay:10.37,2013-02-15 15:30:00,
2013-02-15 09:35:00,23.7,11.1,30.33,WNW,292,3.6,5.8,58,0.00,OVC,SCT,0.00,0.0,WeatherDisplay:10.37,2013-02-15 15:35:00,
2013-02-15 09:40:00,24.1,11.0,30.33,NNW,338,3.3,4.6,57,0.00,OVC,SCT,0.00,0.0,WeatherDisplay:10.37,2013-02-15 15:40:00,
2013-02-15 09:45:00,24.3,10.8,30.33,NNW,338,3.3,4.6,56,0.00,OVC,SCT,0.00,0.0,WeatherDisplay:10.37,2013-02-15 15:45:00,
2013-02-15 09:50:00,24.4,11.0,30.33,NNW,338,3.8,5.8,56,0.00,OVC,SCT,0.00,0.0,WeatherDisplay:10.37,2013-02-15 15:50:00,
2013-02-15 09:55:00,24.6,11.1,30.33,WNW,292,3.1,3.5,56,0.00,OVC,SCT,0.00,0.0,WeatherDisplay:10.37,2013-02-15 15:55:00,
2013-02-15 10:00:00,24.8,10.9,30.33,West,270,2.6,4.6,55,0.00,OVC,SCT,0.00,0.0,WeatherDisplay:10.37,2013-02-15 16:00:00,
2013-02-15 10:05:00,25.3,11.8,30.33,North,0,2.9,4.6,56,0.00,OVC,SCT,0.00,0.0,WeatherDisplay:10.37,2013-02-15 16:05:00,
2013-02-15 10:10:00,25.7,11.3,30.33,North,0,2.2,4.6,54,0.00,OVC,SCT,0.00,0.0,WeatherDisplay:10.37,2013-02-15 16:10:00,
2013-02-15 10:16:00,26.6,11.7,30.33,North,0,5.4,6.9,53,0.00,OVC,SCT,0.00,0.0,WeatherDisplay:10.37,2013-02-15 16:16:00,
2013-02-15 10:21:00,27.0,10.3,30.33,West,270,3.8,4.6,49,0.00,OVC,SCT,0.00,0.0,WeatherDisplay:10.37,2013-02-15 16:21:00,
2013-02-15 10:26:00,27.9,12.1,30.33,North,0,2.6,4.6,51,0.00,OVC,SCT,0.00,100.0,WeatherDisplay:10.37,2013-02-15 16:26:00,
2013-02-15 10:31:00,28.0,9.9,30.33,NNW,338,4.9,8.1,46,0.00,OVC,SCT,0.00,100.0,WeatherDisplay:10.37,2013-02-15 16:31:00,
2013-02-15 10:36:00,28.6,10.4,30.33,WNW,292,2.4,4.6,46,0.00,OVC,SCT,0.00,100.0,WeatherDisplay:10.37,2013-02-15 16:36:00,
2013-02-15 10:42:00,28.6,8.9,30.33,NW,315,4.0,5.8,43,0.00,OVC,SCT,0.00,100.0,WeatherDisplay:10.37,2013-02-15 16:42:00,
2013-02-15 10:47:00,28.9,9.7,30.33,NW,315,3.3,8.1,44,0.00,OVC,SCT,0.00,0.0,WeatherDisplay:10.37,2013-02-15 16:47:00,
2013-02-15 10:52:00,29.5,9.2,30.33,North,0,3.3,4.6,42,0.00,OVC,SCT,0.00,100.0,WeatherDisplay:10.37,2013-02-15 16:52:00,
2013-02-15 10:57:00,29.3,8.5,30.33,NNE,22,3.6,4.3,41,0.00,OVC,SCT,0.00,0.0,WeatherDisplay:10.37,2013-02-15 16:57:00,
2013-02-15 11:02:00,29.1,8.3,30.33,NNW,338,4.0,5.8,41,0.00,OVC,SCT,0.00,0.0,WeatherDisplay:10.37,2013-02-15 17:02:00,
2013-02-15 11:07:00,29.1,7.8,30.33,NNW,338,4.0,5.8,40,0.00,OVC,SCT,0.00,100.0,WeatherDisplay:10.37,2013-02-15 17:07:00,
2013-02-15 11:12:00,29.3,8.5,30.33,WNW,292,4.3,6.0,41,0.00,OVC,SCT,0.00,100.0,WeatherDisplay:10.37,2013-02-15 17:12:00,
2013-02-15 11:17:00,29.3,7.4,30.33,NW,315,4.9,6.9,39,0.00,OVC,SCT,0.00,100.0,WeatherDisplay:10.37,2013-02-15 17:17:00,
2013-02-15 11:22:00,29.5,7.5,30.33,WNW,292,3.6,7.8,39,0.00,OVC,SCT,0.00,100.0,WeatherDisplay:10.37,2013-02-15 17:22:00,
2013-02-15 11:28:00,30.0,9.1,30.33,NNW,338,2.9,4.6,41,0.00,OVC,SCT,0.00,100.0,WeatherDisplay:10.37,2013-02-15 17:28:00,
2013-02-15 11:33:00,30.0,8.0,30.33,NW,315,4.0,5.8,39,0.00,OVC,SCT,0.00,100.0,WeatherDisplay:10.37,2013-02-15 17:33:00,
2013-02-15 11:38:00,30.2,8.7,30.33,WNW,292,5.6,7.4,40,0.00,OVC,SCT,0.00,100.0,WeatherDisplay:10.37,2013-02-15 17:38:00,
2013-02-15 11:43:00,30.0,7.4,30.33,WNW,292,4.0,8.1,38,0.00,OVC,SCT,0.00,100.0,WeatherDisplay:10.37,2013-02-15 17:43:00,
2013-02-15 11:48:00,30.0,7.4,30.33,West,270,5.6,5.9,38,0.00,OVC,SCT,0.00,0.0,WeatherDisplay:10.37,2013-02-15 17:48:00,
2013-02-15 11:53:00,30.4,9.5,30.33,NNE,22,2.4,4.6,41,0.00,OVC,SCT,0.00,100.0,WeatherDisplay:10.37,2013-02-15 17:53:00,
2013-02-15 11:58:00,30.4,8.9,30.33,NNE,22,2.6,3.5,40,0.00,OVC,SCT,0.00,0.0,WeatherDisplay:10.37,2013-02-15 17:58:00,
2013-02-15 12:03:00,30.4,8.9,30.30,NW,315,3.6,5.8,40,0.00,OVC,SCT,0.00,0.0,WeatherDisplay:10.37,2013-02-15 18:03:00,
2013-02-15 12:08:00,30.4,8.9,30.30,WSW,248,2.2,3.5,40,0.00,OVC,SCT,0.00,100.0,WeatherDisplay:10.37,2013-02-15 18:08:00,
2013-02-15 12:13:00,30.6,7.9,30.30,West,270,2.6,5.6,38,0.00,OVC,SCT,0.00,0.0,WeatherDisplay:10.37,2013-02-15 18:13:00,
2013-02-15 12:19:00,30.6,9.1,30.30,North,0,2.0,3.5,40,0.00,OVC,SCT,0.00,0.0,WeatherDisplay:10.37,2013-02-15 18:19:00,
2013-02-15 12:24:00,30.9,9.4,30.30,WNW,292,2.0,3.1,40,0.00,OVC,SCT,0.00,100.0,WeatherDisplay:10.37,2013-02-15 18:24:00,
2013-02-15 12:29:00,31.1,9.0,30.30,NNE,22,2.2,4.6,39,0.00,OVC,SCT,0.00,0.0,WeatherDisplay:10.37,2013-02-15 18:29:00,
2013-02-15 12:34:00,30.6,9.1,30.30,NNW,338,4.0,4.6,40,0.00,OVC,SCT,0.00,0.0,WeatherDisplay:10.37,2013-02-15 18:34:00,
2013-02-15 12:39:00,31.1,8.4,30.30,NNW,338,3.3,4.6,38,0.00,OVC,SCT,0.00,0.0,WeatherDisplay:10.37,2013-02-15 18:39:00,
2013-02-15 12:44:00,31.6,10.0,30.30,West,270,2.2,2.3,40,0.00,OVC,SCT,0.00,100.0,WeatherDisplay:10.37,2013-02-15 18:44:00,
2013-02-15 12:49:00,31.8,9.6,30.30,WNW,292,2.9,2.9,39,0.00,OVC,SCT,0.00,100.0,WeatherDisplay:10.37,2013-02-15 18:49:00,
2013-02-15 12:54:00,32.0,9.2,30.30,SSW,202,4.0,4.6,38,0.00,OVC,SCT,0.00,0.0,WeatherDisplay:10.37,2013-02-15 18:54:00,
2013-02-15 12:59:00,32.0,8.6,30.30,NNE,22,1.4,3.1,37,0.00,OVC,SCT,0.00,0.0,WeatherDisplay:10.37,2013-02-15 18:59:00,
2013-02-15 13:04:00,32.2,9.4,30.30,West,270,2.6,4.6,38,0.00,OVC,SCT,0.00,100.0,WeatherDisplay:10.37,2013-02-15 19:04:00,
2013-02-15 13:09:00,31.6,8.3,30.30,West,270,4.0,5.8,37,0.00,OVC,SCT,0.00,100.0,WeatherDisplay:10.37,2013-02-15 19:09:00,
2013-02-15 13:14:00,32.0,8.6,30.30,West,270,3.3,5.8,37,0.00,OVC,SCT,0.00,100.0,WeatherDisplay:10.37,2013-02-15 19:14:00,
2013-02-15 13:19:00,32.0,8.6,30.30,NW,315,1.1,1.1,37,0.00,OVC,SCT,0.00,0.0,WeatherDisplay:10.37,2013-02-15 19:19:00,
2013-02-15 13:24:00,31.8,7.9,30.30,NNE,22,1.6,3.5,36,0.00,OVC,SCT,0.00,0.0,WeatherDisplay:10.37,2013-02-15 19:24:00,
2013-02-15 13:29:00,31.6,8.9,30.30,WSW,248,4.0,5.9,38,0.00,OVC,SCT,0.00,0.0,WeatherDisplay:10.37,2013-02-15 19:29:00,
2013-02-15 13:34:00,32.0,9.2,30.30,West,270,2.9,3.5,38,0.00,OVC,SCT,0.00,0.0,WeatherDisplay:10.37,2013-02-15 19:34:00,
2013-02-15 13:39:00,32.0,8.0,30.30,NNW,338,2.4,3.6,36,0.00,OVC,SCT,0.00,100.0,WeatherDisplay:10.37,2013-02-15 19:39:00,
2013-02-15 13:45:00,32.4,8.3,30.30,NNW,340,3.0,6.0,36,0.00,OVC,SCT,0.00,0.0,WeatherDisplay:10.37,2013-02-15 19:45:00,
2013-02-15 13:50:00,32.4,8.3,30.30,WNW,292,2.9,4.6,36,0.00,OVC,SCT,0.00,0.0,WeatherDisplay:10.37,2013-02-15 19:50:00,
2013-02-15 13:55:00,32.2,8.8,30.30,WSW,248,4.0,5.9,37,0.00,OVC,SCT,0.00,0.0,WeatherDisplay:10.37,2013-02-15 19:55:00,
2013-02-15 14:00:00,32.4,8.9,30.30,WNW,292,2.2,3.5,37,0.00,OVC,SCT,0.00,0.0,WeatherDisplay:10.37,2013-02-15 20:00:00,
2013-02-15 14:05:00,32.0,8.0,30.27,West,270,3.1,4.6,36,0.00,OVC,SCT,0.00,0.0,WeatherDisplay:10.37,2013-02-15 20:05:00,
2013-02-15 14:10:00,31.6,8.3,30.27,WNW,292,2.2,4.6,37,0.00,OVC,SCT,0.00,0.0,WeatherDisplay:10.37,2013-02-15 20:10:00,
2013-02-15 14:15:00,31.6,8.3,30.27,NNW,338,3.6,4.6,37,0.00,OVC,SCT,0.00,0.0,WeatherDisplay:10.37,2013-02-15 20:15:00,
2013-02-15 14:20:00,31.6,9.5,30.30,West,270,3.8,5.8,39,0.00,OVC,SCT,0.00,0.0,WeatherDisplay:10.37,2013-02-15 20:20:00,
2013-02-15 14:25:00,31.8,10.2,30.30,West,270,4.7,6.9,40,0.00,OVC,SCT,0.00,0.0,WeatherDisplay:10.37,2013-02-15 20:25:00,
2013-02-15 14:30:00,32.4,10.1,30.30,WNW,292,4.3,6.9,39,0.00,OVC,SCT,0.00,0.0,WeatherDisplay:10.37,2013-02-15 20:30:00,
2013-02-15 14:35:00,31.6,9.5,30.27,North,0,3.8,4.6,39,0.00,OVC,SCT,0.00,0.0,WeatherDisplay:10.37,2013-02-15 20:35:00,
2013-02-15 14:40:00,31.3,9.7,30.27,WSW,248,5.4,7.6,40,0.00,OVC,SCT,0.00,0.0,WeatherDisplay:10.37,2013-02-15 20:40:00,
2013-02-15 14:45:00,31.1,10.1,30.27,West,270,4.0,6.2,41,0.00,OVC,SCT,0.00,0.0,WeatherDisplay:10.37,2013-02-15 20:45:00,
2013-02-15 14:50:00,32.0,10.9,30.27,WSW,248,2.6,4.6,41,0.00,OVC,SCT,0.00,0.0,WeatherDisplay:10.37,2013-02-15 20:50:00,
2013-02-15 14:56:00,31.8,10.8,30.27,North,0,2.2,4.6,41,0.00,OVC,SCT,0.00,0.0,WeatherDisplay:10.37,2013-02-15 20:56:00,
2013-02-15 15:01:00,32.9,11.7,30.24,WSW,248,4.5,4.9,41,0.00,OVC,SCT,0.00,100.0,WeatherDisplay:10.37,2013-02-15 21:01:00,
2013-02-15 15:06:00,32.2,11.1,30.24,WSW,248,5.6,6.9,41,0.00,OVC,SCT,0.00,0.0,WeatherDisplay:10.37,2013-02-15 21:06:00,
2013-02-15 15:11:00,32.2,11.1,30.24,NNW,338,2.2,3.3,41,0.00,OVC,SCT,0.00,0.0,WeatherDisplay:10.37,2013-02-15 21:11:00,
2013-02-15 15:16:00,33.1,11.9,30.24,NNW,338,3.3,5.6,41,0.00,OVC,SCT,0.00,0.0,WeatherDisplay:10.37,2013-02-15 21:16:00,
2013-02-15 15:22:00,31.8,10.2,30.24,WNW,292,3.8,4.6,40,0.00,OVC,SCT,0.00,0.0,WeatherDisplay:10.37,2013-02-15 21:22:00,
2013-02-15 15:27:00,31.8,10.2,30.24,WSW,248,3.6,4.9,40,0.00,OVC,SCT,0.00,0.0,WeatherDisplay:10.37,2013-02-15 21:27:00,
2013-02-15 15:32:00,31.6,10.6,30.24,WNW,292,2.0,3.5,41,0.00,OVC,SCT,0.00,0.0,WeatherDisplay:10.37,2013-02-15 21:32:00,
2013-02-15 15:37:00,32.0,10.9,30.24,North,0,1.6,3.5,41,0.00,OVC,SCT,0.00,0.0,WeatherDisplay:10.37,2013-02-15 21:37:00,
2013-02-15 15:42:00,32.2,11.1,30.24,WNW,292,1.1,3.1,41,0.00,OVC,SCT,0.00,0.0,WeatherDisplay:10.37,2013-02-15 21:42:00,
2013-02-15 15:47:00,32.5,11.4,30.24,NNW,338,2.4,3.5,41,0.00,OVC,SCT,0.00,0.0,WeatherDisplay:10.37,2013-02-15 21:47:00,
2013-02-15 15:52:00,31.8,10.8,30.24,West,270,4.0,4.6,41,0.00,OVC,SCT,0.00,0.0,WeatherDisplay:10.37,2013-02-15 21:52:00,
2013-02-15 15:57:00,31.8,10.8,30.24,North,0,1.4,2.3,41,0.00,OVC,SCT,0.00,0.0,WeatherDisplay:10.37,2013-02-15 21:57:00,
2013-02-15 16:02:00,32.0,10.9,30.24,North,0,1.4,3.5,41,0.00,OVC,SCT,0.00,0.0,WeatherDisplay:10.37,2013-02-15 22:02:00,
2013-02-15 16:07:00,32.0,10.9,30.24,NNE,22,2.2,3.5,41,0.00,OVC,SCT,0.00,0.0,WeatherDisplay:10.37,2013-02-15 22:07:00,
2013-02-15 16:13:00,31.8,10.8,30.24,NNE,22,0.0,2.3,41,0.00,OVC,SCT,0.00,0.0,WeatherDisplay:10.37,2013-02-15 22:13:00,
2013-02-15 16:18:00,31.3,10.3,30.24,West,270,1.6,3.5,41,0.00,OVC,SCT,0.00,0.0,WeatherDisplay:10.37,2013-02-15 22:18:00,
2013-02-15 16:23:00,30.7,10.3,30.24,West,270,0.0,4.6,42,0.00,OVC,SCT,0.00,0.0,WeatherDisplay:10.37,2013-02-15 22:23:00,
2013-02-15 16:28:00,30.7,10.8,30.24,WNW,292,2.2,3.1,43,0.00,OVC,SCT,0.00,0.0,WeatherDisplay:10.37,2013-02-15 22:28:00,
2013-02-15 16:33:00,30.6,11.7,30.24,North,0,2.4,3.1,45,0.00,OVC,SCT,0.00,0.0,WeatherDisplay:10.37,2013-02-15 22:33:00,
2013-02-15 16:38:00,29.8,16.8,30.24,NW,315,4.9,5.8,58,0.00,OVC,SCT,0.00,0.0,WeatherDisplay:10.37,2013-02-15 22:38:00,
2013-02-15 16:43:00,28.6,19.0,30.24,West,270,2.4,3.5,67,0.00,OVC,SCT,0.00,0.0,WeatherDisplay:10.37,2013-02-15 22:43:00,
2013-02-15 16:48:00,28.0,20.8,30.27,WSW,248,2.4,2.4,74,0.00,OVC,SCT,0.00,0.0,WeatherDisplay:10.37,2013-02-15 22:48:00,
2013-02-15 16:53:00,27.9,19.7,30.27,SSE,158,0.0,0.0,71,0.00,OVC,SCT,0.00,0.0,WeatherDisplay:10.37,2013-02-15 22:53:00,
2013-02-15 16:58:00,27.9,19.7,30.27,SSE,158,0.0,0.0,71,0.00,OVC,SCT,0.00,0.0,WeatherDisplay:10.37,2013-02-15 22:58:00,
2013-02-15 17:04:00,27.7,19.5,30.24,SSE,158,0.0,0.0,71,0.00,OVC,SCT,0.00,0.0,WeatherDisplay:10.37,2013-02-15 23:04:00,
2013-02-15 17:09:00,27.5,18.3,30.24,SSE,158,0.9,1.4,68,0.00,OVC,SCT,0.00,0.0,WeatherDisplay:10.37,2013-02-15 23:09:00,
2013-02-15 17:14:00,27.3,18.8,30.24,SSE,158,0.0,0.0,70,0.00,OVC,SCT,0.00,0.0,WeatherDisplay:10.37,2013-02-15 23:14:00,
2013-02-15 17:19:00,27.3,19.5,30.24,SW,225,0.0,0.0,72,0.00,OVC,SCT,0.00,0.0,WeatherDisplay:10.37,2013-02-15 23:19:00,
2013-02-15 17:24:00,27.1,19.0,30.24,WNW,292,0.0,0.0,71,0.00,OVC,SCT,0.00,0.0,WeatherDisplay:10.37,2013-02-15 23:24:00,
2013-02-15 17:29:00,27.3,20.4,30.24,WSW,248,0.9,1.1,75,0.00,OVC,SCT,0.00,0.0,WeatherDisplay:10.37,2013-02-15 23:29:00,
2013-02-15 17:34:00,27.1,21.2,30.24,WNW,292,0.9,2.3,78,0.00,OVC,SCT,0.00,0.0,WeatherDisplay:10.37,2013-02-15 23:34:00,
2013-02-15 17:39:00,27.0,21.0,30.24,NNW,338,0.9,1.6,78,0.00,OVC,SCT,0.00,0.0,WeatherDisplay:10.37,2013-02-15 23:39:00,
2013-02-15 17:44:00,27.0,21.3,30.24,NNW,338,0.0,0.0,79,0.00,OVC,SCT,0.00,0.0,WeatherDisplay:10.37,2013-02-15 23:44:00,
2013-02-15 17:49:00,26.8,20.8,30.24,NNW,338,0.0,0.0,78,0.00,OVC,SCT,0.00,0.0,WeatherDisplay:10.37,2013-02-15 23:49:00,
2013-02-15 17:54:00,26.6,20.4,30.24,NNW,338,0.0,0.0,77,0.00,OVC,SCT,0.00,0.0,WeatherDisplay:10.37,2013-02-15 23:54:00,
2013-02-15 17:59:00,26.6,20.1,30.24,ESE,112,0.0,1.4,76,0.00,OVC,SCT,0.00,0.0,WeatherDisplay:10.37,2013-02-15 23:59:00,
2013-02-15 18:04:00,26.4,19.6,30.24,ESE,112,0.0,0.0,75,0.00,CLR,SCT,0.00,0.0,WeatherDisplay:10.37,2013-02-16 00:04:00,
2013-02-15 18:09:00,26.4,20.2,30.24,ENE,68,0.0,0.9,77,0.00,CLR,SCT,0.00,0.0,WeatherDisplay:10.37,2013-02-16 00:09:00,
2013-02-15 18:14:00,26.4,20.5,30.24,NNE,22,0.0,1.1,78,0.00,CLR,SCT,0.00,0.0,WeatherDisplay:10.37,2013-02-16 00:14:00,
2013-02-15 18:19:00,26.4,20.5,30.24,NNW,338,0.0,0.0,78,0.00,CLR,SCT,0.00,0.0,WeatherDisplay:10.37,2013-02-16 00:19:00,
2013-02-15 18:25:00,26.6,21.6,30.24,NNE,22,0.0,1.1,81,0.00,CLR,SCT,0.00,0.0,WeatherDisplay:10.37,2013-02-16 00:25:00,
2013-02-15 18:30:00,26.4,22.0,30.24,SSW,202,2.2,2.3,83,0.00,CLR,SCT,0.00,0.0,WeatherDisplay:10.37,2013-02-16 00:30:00,
2013-02-15 18:35:00,26.2,21.8,30.21,SE,135,1.6,3.3,83,0.00,CLR,SCT,0.00,0.0,WeatherDisplay:10.37,2013-02-16 00:35:00,
2013-02-15 18:40:00,26.2,21.5,30.21,ENE,68,1.1,1.6,82,0.00,CLR,SCT,0.00,0.0,WeatherDisplay:10.37,2013-02-16 00:40:00,
2013-02-15 18:45:00,26.1,21.3,30.21,North,0,2.0,2.3,82,0.00,CLR,SCT,0.00,0.0,WeatherDisplay:10.37,2013-02-16 00:45:00,
2013-02-15 18:50:00,26.1,21.3,30.24,NNW,338,1.1,3.6,82,0.00,CLR,SCT,0.00,0.0,WeatherDisplay:10.37,2013-02-16 00:50:00,
2013-02-15 18:55:00,26.1,21.0,30.24,North,0,1.6,2.3,81,0.00,CLR,SCT,0.00,0.0,WeatherDisplay:10.37,2013-02-16 00:55:00,
2013-02-15 19:01:00,25.9,20.9,30.24,North,0,2.0,3.5,81,0.00,CLR,SCT,0.00,0.0,WeatherDisplay:10.37,2013-02-16 01:01:00,
2013-02-15 19:06:00,25.7,20.7,30.24,North,0,1.6,3.5,81,0.00,CLR,SCT,0.00,0.0,WeatherDisplay:10.37,2013-02-16 01:06:00,
2013-02-15 19:11:00,25.5,20.5,30.24,NNW,338,1.4,3.5,81,0.00,CLR,SCT,0.00,0.0,WeatherDisplay:10.37,2013-02-16 01:11:00,
2013-02-15 19:16:00,25.5,20.5,30.24,SSE,158,2.0,2.3,81,0.00,CLR,SCT,0.00,0.0,WeatherDisplay:10.37,2013-02-16 01:16:00,
2013-02-15 19:21:00,25.3,20.9,30.24,SSE,158,2.6,4.6,83,0.00,CLR,SCT,0.00,0.0,WeatherDisplay:10.37,2013-02-16 01:21:00,
2013-02-15 19:26:00,25.3,20.6,30.24,NNE,22,2.0,3.5,82,0.00,CLR,SCT,0.00,0.0,WeatherDisplay:10.37,2013-02-16 01:26:00,
2013-02-15 19:31:00,25.2,20.4,30.24,North,0,1.6,3.6,82,0.00,CLR,SCT,0.00,0.0,WeatherDisplay:10.37,2013-02-16 01:31:00,
2013-02-15 19:36:00,25.0,20.3,30.27,NNE,22,0.9,2.6,82,0.00,CLR,SCT,0.00,0.0,WeatherDisplay:10.37,2013-02-16 01:36:00,
2013-02-15 19:41:00,25.0,20.5,30.27,North,0,0.9,1.1,83,0.00,CLR,SCT,0.00,0.0,WeatherDisplay:10.37,2013-02-16 01:41:00,
2013-02-15 19:46:00,24.8,20.7,30.30,NNW,338,1.4,2.3,84,0.00,CLR,SCT,0.00,0.0,WeatherDisplay:10.37,2013-02-16 01:46:00,
2013-02-15 19:51:00,24.8,20.7,30.30,NNW,338,1.4,2.3,84,0.00,CLR,SCT,0.00,0.0,WeatherDisplay:10.37,2013-02-16 01:51:00,
2013-02-15 19:56:00,24.6,20.8,30.30,West,270,2.6,4.6,85,0.00,CLR,SCT,0.00,0.0,WeatherDisplay:10.37,2013-02-16 01:56:00,
2013-02-15 20:01:00,24.6,21.0,30.30,North,0,2.2,3.5,86,0.00,CLR,SCT,0.00,0.0,WeatherDisplay:10.37,2013-02-16 02:01:00,
2013-02-15 20:06:00,24.6,21.0,30.30,NNW,338,1.1,2.4,86,0.00,CLR,SCT,0.00,0.0,WeatherDisplay:10.37,2013-02-16 02:06:00,
2013-02-15 20:11:00,24.6,21.3,30.30,NNE,22,2.6,3.5,87,0.00,CLR,SCT,0.00,0.0,WeatherDisplay:10.37,2013-02-16 02:11:00,
2013-02-15 20:16:00,24.4,21.1,30.30,NNW,338,2.2,2.4,87,0.00,CLR,SCT,0.00,0.0,WeatherDisplay:10.37,2013-02-16 02:16:00,
2013-02-15 20:21:00,24.4,20.9,30.30,ESE,112,1.1,2.3,86,0.00,CLR,SCT,0.00,0.0,WeatherDisplay:10.37,2013-02-16 02:21:00,
2013-02-15 20:26:00,23.9,19.8,30.30,NNE,22,2.4,3.5,84,0.00,CLR,SCT,0.00,0.0,WeatherDisplay:10.37,2013-02-16 02:26:00,
2013-02-15 20:31:00,23.5,18.9,30.30,NNE,22,2.2,4.0,82,0.00,CLR,SCT,0.00,0.0,WeatherDisplay:10.37,2013-02-16 02:31:00,
2013-02-15 20:37:00,23.4,18.4,30.30,NNW,338,2.0,3.5,81,0.00,CLR,SCT,0.00,0.0,WeatherDisplay:10.37,2013-02-16 02:37:00,
2013-02-15 20:42:00,23.0,18.0,30.30,NNW,338,1.4,2.4,81,0.00,CLR,SCT,0.00,0.0,WeatherDisplay:10.37,2013-02-16 02:42:00,
2013-02-15 20:47:00,22.8,17.9,30.30,NNE,22,1.1,1.6,81,0.00,CLR,SCT,0.00,0.0,WeatherDisplay:10.37,2013-02-16 02:47:00,
2013-02-15 20:52:00,22.5,17.2,30.30,SSE,158,1.4,2.3,80,0.00,CLR,SCT,0.00,0.0,WeatherDisplay:10.37,2013-02-16 02:52:00,
2013-02-15 20:57:00,22.1,16.9,30.30,NNE,22,1.4,3.5,80,0.00,CLR,SCT,0.00,0.0,WeatherDisplay:10.37,2013-02-16 02:57:00,
2013-02-15 21:02:00,21.9,16.7,30.33,NE,45,0.0,1.1,80,0.00,CLR,SCT,0.00,0.0,WeatherDisplay:10.37,2013-02-16 03:02:00,
2013-02-15 21:07:00,21.7,16.5,30.33,North,0,0.9,2.3,80,0.00,CLR,SCT,0.00,0.0,WeatherDisplay:10.37,2013-02-16 03:07:00,
2013-02-15 21:12:00,21.4,16.2,30.33,NNE,22,1.1,1.1,80,0.00,CLR,SCT,0.00,0.0,WeatherDisplay:10.37,2013-02-16 03:12:00,
2013-02-15 21:17:00,21.2,16.0,30.30,NNE,22,0.9,2.3,80,0.00,CLR,SCT,0.00,0.0,WeatherDisplay:10.37,2013-02-16 03:17:00,
2013-02-15 21:22:00,20.8,15.6,30.30,ENE,68,0.9,1.1,80,0.00,CLR,SCT,0.00,0.0,WeatherDisplay:10.37,2013-02-16 03:22:00,
2013-02-15 21:27:00,20.7,15.2,30.30,North,0,0.9,1.6,79,0.00,CLR,SCT,0.00,0.0,WeatherDisplay:10.37,2013-02-16 03:27:00,
2013-02-15 21:32:00,20.5,15.0,30.30,NNW,338,0.0,0.0,79,0.00,CLR,SCT,0.00,0.0,WeatherDisplay:10.37,2013-02-16 03:32:00,
2013-02-15 21:37:00,20.1,14.7,30.30,West,270,0.0,1.1,79,0.00,CLR,SCT,0.00,0.0,WeatherDisplay:10.37,2013-02-16 03:37:00,
2013-02-15 21:42:00,19.9,14.5,30.30,NNW,338,0.0,0.0,79,0.00,CLR,SCT,0.00,0.0,WeatherDisplay:10.37,2013-02-16 03:42:00,
2013-02-15 21:47:00,19.6,14.1,30.33,NNW,338,0.0,0.0,79,0.00,CLR,SCT,0.00,0.0,WeatherDisplay:10.37,2013-02-16 03:47:00,
2013-02-15 21:53:00,19.2,13.8,30.33,NW,315,0.0,0.0,79,0.00,CLR,SCT,0.00,0.0,WeatherDisplay:10.37,2013-02-16 03:53:00,
2013-02-15 21:58:00,18.7,13.0,30.33,NNW,338,0.9,1.1,78,0.00,CLR,SCT,0.00,0.0,WeatherDisplay:10.37,2013-02-16 03:58:00,
2013-02-15 22:03:00,18.3,12.6,30.30,NNW,338,0.0,1.1,78,0.00,CLR,SCT,0.00,0.0,WeatherDisplay:10.37,2013-02-16 04:03:00,
2013-02-15 22:08:00,18.3,12.9,30.30,NNW,338,0.0,0.0,79,0.00,CLR,SCT,0.00,0.0,WeatherDisplay:10.37,2013-02-16 04:08:00,
2013-02-15 22:13:00,18.0,12.5,30.30,NNW,338,0.0,0.0,79,0.00,CLR,SCT,0.00,0.0,WeatherDisplay:10.37,2013-02-16 04:13:00,
2013-02-15 22:18:00,17.6,12.5,30.30,North,0,1.4,3.1,80,0.00,CLR,SCT,0.00,0.0,WeatherDisplay:10.37,2013-02-16 04:18:00,
2013-02-15 22:23:00,17.6,13.0,30.30,NNW,338,1.4,2.3,82,0.00,CLR,SCT,0.00,0.0,WeatherDisplay:10.37,2013-02-16 04:23:00,
2013-02-15 22:28:00,17.8,13.8,30.30,NNE,22,0.9,2.3,84,0.00,CLR,SCT,0.00,0.0,WeatherDisplay:10.37,2013-02-16 04:28:00,
2013-02-15 22:34:00,18.0,14.7,30.30,North,0,1.4,1.4,87,0.00,CLR,SCT,0.00,0.0,WeatherDisplay:10.37,2013-02-16 04:34:00,
2013-02-15 22:39:00,18.1,14.9,30.30,WNW,292,2.2,2.6,87,0.00,CLR,SCT,0.00,0.0,WeatherDisplay:10.37,2013-02-16 04:39:00,
2013-02-15 22:44:00,18.3,15.6,30.30,NNW,338,0.9,1.1,89,0.00,CLR,SCT,0.00,0.0,WeatherDisplay:10.37,2013-02-16 04:44:00,
2013-02-15 22:49:00,18.5,16.1,30.27,NNW,338,1.1,2.3,90,0.00,CLR,SCT,0.00,0.0,WeatherDisplay:10.37,2013-02-16 04:49:00,
2013-02-15 22:54:00,18.7,16.5,30.27,North,0,1.1,2.3,91,0.00,CLR,SCT,0.00,0.0,WeatherDisplay:10.37,2013-02-16 04:54:00,
2013-02-15 22:59:00,18.7,16.5,30.27,West,270,0.9,2.3,91,0.00,CLR,SCT,0.00,0.0,WeatherDisplay:10.37,2013-02-16 04:59:00,
2013-02-15 23:00:00,18.7,16.5,30.27,West,270,0.9,2.3,91,0.00,CLR,SCT,0.00,0.0,WeatherDisplay:10.37,2013-02-16 05:00:00,
2013-02-15 23:05:00,19.0,16.8,30.30,NW,315,2.2,3.5,91,0.00,CLR,SCT,0.00,0.0,WeatherDisplay:10.37,2013-02-16 05:05:00,
2013-02-15 23:10:00,19.0,16.8,30.30,NNW,338,1.4,2.3,91,0.00,CLR,SCT,0.00,0.0,WeatherDisplay:10.37,2013-02-16 05:10:00,
2013-02-15 23:15:00,19.2,17.3,30.30,NNW,338,0.0,1.4,92,0.00,CLR,SCT,0.00,0.0,WeatherDisplay:10.37,2013-02-16 05:15:00,
2013-02-15 23:20:00,19.4,17.5,30.30,NNE,22,1.4,2.3,92,0.00,CLR,SCT,0.00,0.0,WeatherDisplay:10.37,2013-02-16 05:20:00,
2013-02-15 23:23:00,19.4,17.5,30.30,WNW,292,0.0,1.4,92,0.00,CLR,SCT,0.00,0.0,WeatherDisplay:10.37,2013-02-16 05:23:00,
2013-02-15 23:28:00,19.4,17.2,30.30,NNW,338,0.9,2.3,91,0.00,CLR,SCT,0.00,0.0,WeatherDisplay:10.37,2013-02-16 05:28:00,
2013-02-15 23:33:00,19.4,17.2,30.30,WNW,292,2.0,3.5,91,0.00,CLR,SCT,0.00,0.0,WeatherDisplay:10.37,2013-02-16 05:33:00,
2013-02-15 23:38:00,19.2,16.8,30.30,NNW,338,0.0,1.1,90,0.00,CLR,SCT,0.00,0.0,WeatherDisplay:10.37,2013-02-16 05:38:00,
2013-02-15 23:43:00,19.0,16.3,30.30,NNW,338,0.9,1.1,89,0.00,CLR,SCT,0.00,0.0,WeatherDisplay:10.37,2013-02-16 05:43:00,
2013-02-15 23:48:00,18.3,15.1,30.30,West,270,1.1,2.6,87,0.00,CLR,SCT,0.00,0.0,WeatherDisplay:10.37,2013-02-16 05:48:00,
2013-02-15 23:53:00,18.1,14.1,30.30,WNW,292,0.9,1.6,84,0.00,CLR,SCT,0.00,0.0,WeatherDisplay:10.37,2013-02-16 05:53:00,
2013-02-15 23:58:00,17.6,13.3,30.30,NNW,338,0.0,0.0,83,0.00,CLR,SCT,0.00,0.0,WeatherDisplay:10.37,2013-02-16 05:58:00,